Lid_Strength_Index
1 1 1 1 2 1 1 1 1 0 -0 -0 -1 -1 -1 -1 -1 1 4 1 1 1 1 4 5 7 7 8 8 8 11 12 11 11 10 9 9 8 6 6 5 5 5 4 2
2 2 2 2 2 2 1 2 2 1 1 0 -1 -1 -1 -1 1 4 -0 -1 -0 1 3 6 6 8 9 9 10 11 12 11 9 8 9 9 8 8 7 7 7 6 4 3 2
2 2 2 2 2 2 1 0 0 0 0 0 -0 -1 -1 -1 4 4 -1 -1 -0 1 3 4 6 7 10 9 11 12 12 10 9 8 8 8 9 8 8 9 7 7 6 4 4
2 2 2 2 1 1 -1 -2 -2 -2 -2 -1 -1 -1 -1 1 11 4 2 -1 -0 1 3 6 7 9 11 12 11 13 12 10 7 7 8 9 8 8 8 7 5 4 4 4 4
2 2 2 2 0 -2 -2 -2 -2 -2 -2 -1 -1 -1 1 6 6 3 2 -0 0 2 3 7 8 8 11 11 11 12 11 9 9 8 8 8 9 9 8 6 4 4 4 4 4
2 2 2 1 -2 -2 -2 -2 -1 -1 -2 -2 -1 -1 3 9 1 2 3 1 1 2 4 6 8 7 9 10 11 10 10 10 9 9 9 9 9 8 8 5 6 5 5 5 4
3 2 2 -1 -1 -1 -2 -2 -1 -1 -1 -1 -1 1 5 6 1 2 2 4 2 2 5 6 7 9 8 11 9 10 11 11 10 10 10 9 10 10 9 6 6 6 5 5 4
3 2 1 -1 -1 -1 -2 -1 -1 -1 -1 -1 -1 2 7 1 0 2 3 4 3 3 4 6 6 8 9 9 11 12 11 14 12 11 10 10 12 10 8 7 7 7 6 5 4
2 2 -1 -1 -1 -1 -1 -1 -1 -1 -1 0 4 6 8 1 3 2 3 5 4 5 5 5 7 10 10 12 13 14 15 15 14 12 12 10 12 11 8 7 8 7 6 6 5
2 0 -1 -1 -1 -1 -1 -1 -0 0 1 2 3 6 5 6 3 3 3 3 5 6 7 8 10 12 13 12 17 17 17 15 14 12 13 13 13 13 10 7 8 7 6 6 6
2 -1 -1 -1 -1 -1 1 4 7 7 5 7 8 7 6 3 2 4 4 5 5 7 11 10 13 14 13 11 11 14 16 15 15 14 13 13 13 14 12 11 9 8 7 6 6
1 -1 -1 -1 -1 -1 2 6 7 7 11 6 5 5 4 3 7 5 4 7 8 11 10 11 14 12 12 12 12 14 14 16 15 15 14 14 14 14 13 13 11 9 7 6 7
1 -1 -1 -1 -1 1 4 4 2 4 10 9 6 6 5 4 8 7 6 7 10 11 11 13 12 11 12 14 15 14 14 15 16 16 16 17 15 16 14 13 12 11 9 8 7
1 -1 -0 -1 3 3 4 2 2 3 13 12 10 8 6 5 9 5 5 7 10 12 12 12 11 12 14 14 14 17 14 14 16 16 18 17 18 17 16 15 14 12 12 11 10
0 -1 -1 0 4 5 3 2 3 5 20 12 10 5 6 8 8 8 6 7 12 13 12 15 12 13 14 13 14 15 14 13 15 17 17 18 19 18 18 17 15 13 12 12 12
0 -1 0 3 4 3 2 3 6 14 20 14 11 10 10 8 9 7 8 7 9 13 13 14 11 11 13 13 14 14 15 16 17 17 21 19 19 19 18 16 15 14 14 13 14
0 -1 1 3 5 2 4 7 14 18 12 14 13 10 11 11 11 10 11 12 13 17 17 15 16 13 12 14 13 15 15 20 20 21 21 21 21 18 16 16 15 15 15 14 14
0 -0 1 3 3 4 6 12 19 16 15 11 11 11 13 11 11 11 12 14 12 14 16 18 19 15 12 13 15 16 17 19 23 23 22 21 21 18 17 16 16 15 15 14 12
2 5 5 5 4 5 10 16 17 15 14 14 12 14 14 13 12 12 12 13 12 13 16 17 18 14 12 12 13 15 17 17 21 25 22 21 20 17 17 17 16 14 14 13 13
7 8 7 5 6 8 13 17 14 12 13 13 15 13 15 13 14 13 13 12 13 12 12 15 18 15 14 12 13 14 15 17 18 25 25 23 22 19 18 16 16 14 14 13 13
9 11 6 5 7 11 17 15 13 11 11 14 14 13 13 14 13 14 13 12 11 13 12 14 15 16 14 16 16 16 16 16 17 20 23 24 21 19 17 17 15 14 13 13 13
11 15 6 5 13 20 14 13 10 11 10 11 12 13 13 12 13 14 14 12 10 12 14 12 15 18 17 15 13 15 15 16 17 21 22 22 20 19 19 18 16 15 13 13 14
16 13 6 7 16 19 14 11 11 11 12 12 13 12 12 13 14 13 13 10 10 11 13 12 15 19 17 15 15 16 16 14 17 18 21 20 19 18 17 16 16 15 14 14 13
15 16 13 11 12 14 20 16 15 10 11 11 12 11 12 14 12 13 13 10 10 10 10 11 15 17 19 18 16 17 18 16 15 18 20 18 20 19 17 16 15 15 15 15 14
15 15 13 19 16 13 13 13 14 14 11 11 13 12 14 16 14 14 12 11 11 10 11 12 16 16 16 17 16 15 16 17 17 15 17 16 18 17 17 16 15 14 14 14 14
15 16 10 12 10 12 12 16 14 13 12 13 13 12 11 14 13 15 13 13 13 11 12 12 17 16 19 16 16 17 15 15 16 16 18 19 18 16 16 15 15 14 14 14 13
11 11 12 11 13 15 16 12 12 12 11 11 12 12 12 11 10 10 10 11 11 12 13 14 16 17 19 18 17 20 18 16 15 15 15 17 15 14 15 15 15 14 14 14 13